| time (UTC) | temp F | wind direction | speed MPH | gust MPH | rain 1hr in | rain 24hr in | rain mn in | humidity % | barometer mb |
| 20260507024525 | 54 | 150 | 0.0 | 1.0 | 0.00 | 0.00 | 0.00 | 59 | 1018.3 |
| 20260507023025 | 53 | 150 | 0.0 | 2.0 | 0.00 | 0.00 | 0.00 | 65 | 1018.2 |
| 20260507021525 | 52 | 150 | 0.0 | 1.0 | 0.00 | 0.00 | 0.00 | 78 | 1018.2 |
| 20260507020025 | 52 | 150 | 0.0 | 2.0 | 0.00 | 0.00 | 0.00 | 78 | 1018.3 |
| 20260507014527 | 53 | 150 | 1.0 | 2.0 | 0.00 | 0.00 | 0.00 | 77 | 1018.3 |
| 20260507013032 | 54 | 150 | 1.0 | 2.0 | 0.00 | 0.00 | 0.00 | 75 | 1018.2 |
| 20260507011530 | 54 | 150 | 1.0 | 3.0 | 0.00 | 0.00 | 0.00 | 74 | 1018.2 |
| 20260507010022 | 55 | 153 | 1.0 | 3.0 | 0.00 | 0.00 | 0.00 | 73 | 1018.1 |
| 20260507004521 | 55 | 148 | 1.0 | 3.0 | 0.00 | 0.00 | 0.00 | 71 | 1018.1 |
| 20260507003021 | 56 | 200 | 1.0 | 3.0 | 0.00 | 0.00 | 0.00 | 70 | 1018.2 |
| 20260507001525 | 56 | 198 | 1.0 | 2.0 | 0.00 | 0.00 | 0.00 | 69 | 1018.2 |
| 20260507000018 | 57 | 171 | 2.0 | 4.0 | 0.00 | 0.00 | 0.00 | 69 | 1018.1 |
| 20260506234517 | 57 | 233 | 0.0 | 4.0 | 0.00 | 0.00 | 0.00 | 69 | 1018.2 |
| 20260506233017 | 58 | 246 | 0.0 | 4.0 | 0.00 | 0.00 | 0.00 | 66 | 1018.2 |
| 20260506231514 | 59 | 142 | 2.0 | 4.0 | 0.00 | 0.00 | 0.00 | 66 | 1018.4 |
| 20260506230012 | 60 | 146 | 1.0 | 4.0 | 0.00 | 0.00 | 0.00 | 62 | 1018.5 |
| 20260506224510 | 62 | 138 | 2.0 | 4.0 | 0.00 | 0.00 | 0.00 | 61 | 1018.6 |
| 20260506223015 | 62 | 196 | 1.0 | 4.0 | 0.00 | 0.00 | 0.00 | 61 | 1018.8 |
| 20260506221507 | 66 | 236 | 2.0 | 4.0 | 0.00 | 0.00 | 0.00 | 55 | 1019.0 |
| 20260506220007 | 66 | 28 | 1.0 | 4.0 | 0.00 | 0.00 | 0.00 | 41 | 1019.3 |
| 20260506214503 | 65 | 36 | 1.0 | 4.0 | 0.00 | 0.00 | 0.00 | 41 | 1019.3 |
| 20260506211557 | 64 | 271 | 0.0 | 3.0 | 0.00 | 0.00 | 0.00 | 46 | 1019.8 |
| 20260506210054 | 63 | 5 | 1.0 | 4.0 | 0.00 | 0.00 | 0.00 | 42 | 1020.0 |
| 20260506204551 | 62 | 24 | 1.0 | 5.0 | 0.00 | 0.00 | 0.00 | 48 | 1020.0 |
| 20260506203047 | 61 | 351 | 1.0 | 5.0 | 0.00 | 0.00 | 0.00 | 45 | 1020.1 |
| 20260506201545 | 60 | 285 | 0.0 | 4.0 | 0.00 | 0.00 | 0.00 | 49 | 1020.4 |
| 20260506200141 | 59 | 16 | 1.0 | 9.0 | 0.00 | 0.00 | 0.00 | 50 | 1020.5 |
| 20260506194538 | 58 | 279 | 1.0 | 6.0 | 0.00 | 0.00 | 0.00 | 50 | 1020.6 |
| 20260506193036 | 58 | 311 | 1.0 | 7.0 | 0.00 | 0.00 | 0.00 | 52 | 1020.8 |
| 20260506191533 | 57 | 282 | 1.0 | 6.0 | 0.00 | 0.00 | 0.00 | 51 | 1021.0 |
| 20260506190036 | 57 | 14 | 2.0 | 4.0 | 0.00 | 0.00 | 0.00 | 54 | 1021.2 |
| 20260506184534 | 56 | 349 | 1.0 | 4.0 | 0.00 | 0.00 | 0.00 | 54 | 1021.2 |
| 20260506183026 | 55 | 5 | 1.0 | 4.0 | 0.00 | 0.00 | 0.00 | 53 | 1021.2 |
| 20260506181524 | 55 | 19 | 2.0 | 5.0 | 0.00 | 0.00 | 0.00 | 53 | 1021.3 |
| 20260506180026 | 55 | 333 | 1.0 | 4.0 | 0.00 | 0.00 | 0.00 | 56 | 1021.4 |
| 20260506174520 | 54 | 31 | 1.0 | 4.0 | 0.00 | 0.02 | 0.00 | 61 | 1021.2 |
| 20260506173018 | 53 | 360 | 1.0 | 4.0 | 0.00 | 0.02 | 0.00 | 63 | 1021.1 |
| 20260506171514 | 52 | 11 | 1.0 | 4.0 | 0.00 | 0.02 | 0.00 | 64 | 1021.1 |
| 20260506170011 | 52 | 5 | 1.0 | 4.0 | 0.00 | 0.02 | 0.00 | 62 | 1021.1 |
| 20260506164509 | 51 | 5 | 1.0 | 3.0 | 0.00 | 0.05 | 0.00 | 66 | 1021.0 |
| 20260506163007 | 50 | 360 | 2.0 | 5.0 | 0.00 | 0.05 | 0.00 | 66 | 1021.0 |
| 20260506161502 | 50 | 16 | 1.0 | 5.0 | 0.00 | 0.05 | 0.00 | 70 | 1020.8 |
| 20260506160111 | 49 | 30 | 1.0 | 5.0 | 0.00 | 0.05 | 0.00 | 75 | 1020.7 |
| 20260506154600 | 47 | 5 | 1.0 | 3.0 | 0.00 | 0.09 | 0.00 | 77 | 1020.7 |
| 20260506153057 | 46 | 333 | 1.0 | 2.0 | 0.00 | 0.09 | 0.00 | 80 | 1020.7 |
| 20260506151549 | 45 | 333 | 1.0 | 3.0 | 0.00 | 0.09 | 0.00 | 83 | 1020.8 |
| 20260506150044 | 44 | 332 | 1.0 | 2.0 | 0.00 | 0.09 | 0.00 | 83 | 1020.9 |
| 20260506144542 | 43 | 11 | 1.0 | 2.0 | 0.00 | 0.14 | 0.00 | 85 | 1020.8 |
| 20260506143040 | 41 | 11 | 1.0 | 2.0 | 0.00 | 0.14 | 0.00 | 86 | 1020.6 |
| 20260506141534 | 41 | 11 | 1.0 | 3.0 | 0.00 | 0.14 | 0.00 | 87 | 1020.6 |
| 20260506140031 | 40 | 11 | 1.0 | 2.0 | 0.00 | 0.14 | 0.00 | 86 | 1020.4 |
| 20260506134529 | 40 | 11 | 1.0 | 3.0 | 0.00 | 0.19 | 0.00 | 87 | 1020.2 |
| 20260506133027 | 39 | 11 | 1.0 | 3.0 | 0.00 | 0.19 | 0.00 | 88 | 1020.0 |
| 20260506131532 | 39 | 11 | 1.0 | 3.0 | 0.00 | 0.19 | 0.00 | 87 | 1019.9 |
| 20260506130023 | 39 | 11 | 1.0 | 3.0 | 0.00 | 0.19 | 0.00 | 87 | 1019.7 |
| 20260506124522 | 39 | 11 | 1.0 | 4.0 | 0.00 | 0.23 | 0.00 | 87 | 1019.6 |
| 20260506123020 | 38 | 16 | 1.0 | 3.0 | 0.00 | 0.23 | 0.00 | 89 | 1019.5 |
| 20260506121518 | 38 | 16 | 1.0 | 3.0 | 0.00 | 0.23 | 0.00 | 88 | 1019.3 |
| 20260506120020 | 38 | 16 | 2.0 | 3.0 | 0.00 | 0.23 | 0.00 | 88 | 1019.3 |
| 20260506114517 | 38 | 16 | 2.0 | 4.0 | 0.00 | 0.24 | 0.00 | 89 | 1019.3 |
| 20260506113016 | 38 | 16 | 1.0 | 3.0 | 0.00 | 0.24 | 0.00 | 90 | 1019.2 |
| 20260506111515 | 38 | 16 | 1.0 | 3.0 | 0.00 | 0.24 | 0.00 | 90 | 1019.1 |
| 20260506110020 | 39 | 16 | 2.0 | 3.0 | 0.00 | 0.24 | 0.00 | 89 | 1019.0 |
| 20260506104513 | 38 | 16 | 1.0 | 3.0 | 0.00 | 0.24 | 0.00 | 90 | 1018.9 |
| 20260506103011 | 39 | 16 | 1.0 | 3.0 | 0.00 | 0.24 | 0.00 | 91 | 1018.8 |
| 20260506101521 | 40 | 16 | 1.0 | 4.0 | 0.00 | 0.24 | 0.00 | 93 | 1018.8 |
| 20260506100005 | 38 | 279 | 2.0 | 3.0 | 0.00 | 0.24 | 0.00 | 94 | 1018.8 |
| 20260506094507 | 37 | 211 | 0.0 | 1.0 | 0.00 | 0.25 | 0.00 | 94 | 1018.8 |
| 20260506093002 | 37 | 211 | 0.0 | 1.0 | 0.00 | 0.25 | 0.00 | 94 | 1018.7 |
| 20260506091502 | 37 | 211 | 0.0 | 2.0 | 0.00 | 0.25 | 0.00 | 94 | 1018.8 |
| 20260506090059 | 36 | 211 | 0.0 | 2.0 | 0.00 | 0.25 | 0.00 | 94 | 1018.8 |
| 20260506084622 | 36 | 211 | 1.0 | 2.0 | 0.00 | 0.26 | 0.00 | 94 | 1018.9 |
| 20260506083056 | 37 | 211 | 1.0 | 2.0 | 0.00 | 0.26 | 0.00 | 94 | 1019.0 |
| 20260506081556 | 37 | 211 | 1.0 | 2.0 | 0.00 | 0.26 | 0.00 | 94 | 1019.2 |
| 20260506073050 | 37 | 211 | 0.0 | 2.0 | 0.00 | 0.27 | 0.00 | 94 | 1019.2 |
| 20260506071546 | 37 | 211 | 1.0 | 2.0 | 0.00 | 0.27 | 0.00 | 94 | 1019.3 |
| 20260506061540 | 37 | 211 | 0.0 | 2.0 | 0.00 | 0.28 | 0.27 | 94 | 1018.8 |
| 20260506044606 | 39 | 205 | 0.0 | 2.0 | 0.00 | 0.28 | 0.27 | 94 | 1018.0 |
| 20260506043032 | 39 | 205 | 0.0 | 2.0 | 0.00 | 0.28 | 0.27 | 94 | 1017.8 |
| 20260506041529 | 39 | 205 | 0.0 | 1.0 | 0.00 | 0.28 | 0.27 | 94 | 1017.6 |
| 20260506040029 | 39 | 205 | 0.0 | 2.0 | 0.00 | 0.28 | 0.27 | 94 | 1017.5 |
| 20260506034548 | 39 | 205 | 0.0 | 1.0 | 0.00 | 0.28 | 0.27 | 94 | 1017.3 |
| 20260506033025 | 39 | 205 | 0.0 | 1.0 | 0.00 | 0.28 | 0.27 | 94 | 1017.2 |
| 20260506031523 | 39 | 205 | 0.0 | 1.0 | 0.00 | 0.28 | 0.27 | 94 | 1017.0 |
| 20260506030021 | 39 | 205 | 0.0 | 2.0 | 0.00 | 0.28 | 0.27 | 94 | 1016.8 |